Date,TemperatureHighF,TemperatureAvgF,TemperatureLowF,DewpointHighF,DewpointAvgF,DewpointLowF,HumidityHigh,HumidityAvg,HumidityLow,PressureMaxIn,PressureMinIn,WindSpeedMaxMPH,WindSpeedAvgMPH,GustSpeedMaxMPH,PrecipitationSumIn
2013-1-3,23,20,18,17,15,13,89,82,73,30.47,30.39,8,2,14,0.00
2013-1-4,36,25,18,22,18,15,90,76,52,30.39,30.20,6,2,11,0.00
2013-1-5,31,25,17,26,20,15,93,81,67,30.28,30.03,11,4,21,0.00
2013-1-6,35,25,14,25,19,11,91,78,62,30.39,30.18,9,3,13,0.00
2013-1-7,40,33,26,30,26,24,94,76,62,30.18,29.99,13,3,18,0.00
2013-1-8,42,33,22,32,28,21,95,82,67,30.17,29.87,13,3,20,0.00
2013-1-9,49,37,26,34,30,24,94,75,51,30.47,30.17,6,2,10,0.00
2013-1-10,41,38,36,37,32,24,98,78,53,30.36,29.72,10,5,20,0.08
2013-1-11,53,41,27,47,38,21,99,89,75,29.76,29.39,17,5,25,0.02
2013-1-12,27,18,10,21,10,4,78,68,60,30.20,29.77,13,6,26,0.00
2013-1-13,20,13,7,7,5,2,82,70,53,30.44,30.20,10,3,17,0.00
2013-1-14,28,18,8,14,10,5,90,71,50,30.55,30.43,6,1,10,0.00
2013-1-15,35,24,13,20,15,9,88,70,46,30.43,30.10,10,3,18,0.00
2013-1-16,51,36,23,35,27,18,87,71,51,30.27,29.97,10,4,16,0.00
2013-1-17,36,30,23,31,27,21,96,88,75,30.50,30.27,8,1,12,0.00
2013-1-18,51,42,30,35,31,27,94,67,50,30.33,29.90,11,5,18,0.00
2013-1-19,52,39,21,34,28,13,86,66,47,30.37,29.88,15,5,23,0.00
2013-1-20,21,16,13,13,9,6,82,72,58,30.49,30.35,11,3,14,0.00
2013-1-21,15,9,3,10,-2,-7,81,60,47,30.56,30.45,12,4,17,0.00
2013-1-22,20,13,9,12,7,0,86,77,61,30.50,30.34,6,2,10,0.00
2013-1-23,28,19,9,18,11,0,84,73,62,30.61,30.25,13,5,23,0.00
2013-1-24,19,10,2,7,0,-6,72,62,54,30.66,30.27,12,5,17,0.00
2013-1-25,46,29,16,30,19,7,82,66,48,30.30,30.20,8,2,14,0.00
2013-1-26,46,30,16,28,20,10,83,66,49,30.31,30.05,14,7,21,0.00
2013-1-27,42,38,35,41,36,25,99,91,59,30.05,29.71,14,4,21,0.15
2013-1-28,45,39,34,45,39,33,100,99,99,29.89,29.57,7,2,9,0.01
2013-1-29,41,34,30,41,32,28,100,93,86,29.73,29.56,15,6,20,0.00
2013-1-30,30,22,13,28,17,8,97,82,67,30.00,29.66,17,7,31,0.00
2013-1-31,13,6,0,8,-1,-7,82,71,59,30.54,30.00,14,5,21,0.00
2013-2-1,27,14,-2,21,7,-7,83,74,66,30.55,30.16,13,5,23,0.00
2013-2-2,39,29,24,31,24,18,91,80,73,30.26,30.09,8,3,12,0.00
2013-2-3,42,33,21,30,24,16,81,70,56,30.27,29.81,14,4,21,0.00
2013-2-4,38,27,22,31,23,19,92,84,75,30.06,29.80,15,4,24,0.00
2013-2-5,48,37,26,34,28,24,93,74,45,30.11,29.88,11,3,17,0.00
2013-2-6,52,41,32,39,33,28,84,73,61,30.11,29.85,13,4,20,0.00
2013-2-7,41,34,29,36,29,24,92,84,80,30.28,29.89,15,7,21,0.00
2013-2-8,33,28,25,27,25,22,92,87,78,30.39,30.19,11,4,17,0.00
2013-2-9,48,37,28,38,32,26,94,83,67,30.22,29.71,18,10,25,0.00
2013-2-10,46,37,30,42,33,23,98,86,74,29.82,29.27,18,10,32,0.02
2013-2-11,34,30,24,25,23,21,88,77,66,30.21,29.82,15,5,25,0.00
2013-2-12,48,34,20,27,23,19,94,68,36,30.20,29.93,9,2,14,0.00
2013-2-13,53,39,25,32,27,22,88,64,39,29.95,29.74,9,3,15,0.00
2013-2-14,43,36,22,32,28,14,92,72,46,30.32,29.81,15,6,24,0.00
2013-2-15,31,23,15,24,16,11,94,76,50,30.41,30.32,10,3,12,0.00
2013-2-16,33,24,12,25,19,10,92,81,69,30.40,30.07,9,3,12,0.00
2013-2-17,53,39,25,36,28,21,83,67,50,30.07,29.59,15,7,25,0.00
2013-2-18,46,32,21,34,25,14,93,75,61,30.11,29.56,16,8,28,0.00
2013-2-19,24,15,9,14,4,0,77,61,35,30.48,30.11,13,6,21,0.00
2013-2-20,25,15,4,9,3,-2,76,60,46,30.49,30.30,12,5,14,0.00
2013-2-21,24,22,20,21,15,8,94,77,55,30.33,29.91,15,8,21,0.00
2013-2-22,23,19,13,19,16,10,93,85,72,30.10,29.91,9,3,15,0.00
2013-2-23,38,23,9,28,18,7,92,81,64,30.08,29.89,9,3,14,0.02
2013-2-24,42,31,21,29,25,19,92,80,59,30.11,29.95,5,2,7,0.00
2013-2-25,34,29,26,28,26,23,95,87,77,30.13,29.97,13,5,17,0.00
2013-2-26,32,28,25,29,26,24,96,92,87,29.98,29.82,12,7,16,0.00
2013-2-27,36,29,23,27,24,20,91,80,64,30.15,29.94,15,7,26,0.00
2013-2-28,30,27,25,25,23,21,87,83,77,30.28,30.15,13,6,18,0.00
2013-3-1,28,25,23,21,19,16,86,78,67,30.43,30.27,14,5,18,0.00
2013-3-2,36,28,19,24,19,15,84,71,49,30.42,30.15,8,3,12,0.00
2013-3-3,39,32,26,30,26,22,85,76,67,30.16,29.76,15,7,23,0.00
2013-3-4,42,35,30,31,28,25,93,76,61,30.07,29.71,13,5,18,0.00
2013-3-5,32,27,23,28,19,16,86,73,64,30.45,30.05,18,8,24,0.00
2013-3-6,38,28,21,24,20,16,84,72,52,30.50,30.30,10,4,13,0.00
2013-3-7,49,35,24,31,25,20,83,70,48,30.34,30.14,15,8,20,0.00
2013-3-8,54,42,31,40,33,26,90,71,56,30.23,29.92,16,7,23,0.18
2013-3-9,53,45,35,51,43,33,96,93,86,29.94,29.53,16,6,22,0.36
2013-3-10,35,28,22,33,26,20,96,95,91,29.99,29.68,20,11,31,0.03
2013-3-11,31,25,21,23,19,17,92,79,58,30.07,29.94,10,4,16,0.00
2013-3-12,34,29,22,25,22,18,93,77,68,30.39,30.07,12,5,21,0.00
2013-3-13,37,28,16,24,19,14,90,70,49,30.50,30.29,8,3,14,0.00
2013-3-14,55,43,33,42,33,23,87,68,58,30.29,30.07,8,3,13,0.00
2013-3-15,58,46,38,44,39,35,92,78,57,30.08,29.72,9,3,13,0.00
2013-3-16,39,32,28,37,27,23,93,83,71,30.23,29.85,16,7,21,0.00
2013-3-17,44,33,23,34,26,19,94,75,55,30.20,29.78,14,7,20,0.01
2013-3-18,35,33,28,34,22,15,96,67,44,30.09,29.75,15,6,25,0.09
2013-3-19,49,32,20,27,18,12,74,58,32,30.38,30.09,13,4,23,0.00
2013-3-20,33,24,15,15,10,3,77,56,38,30.46,30.17,14,5,18,0.00
2013-3-21,32,27,20,19,14,12,74,60,44,30.18,29.97,11,5,15,0.00
2013-3-22,34,30,25,22,19,18,76,64,53,30.08,30.01,8,3,10,0.00
2013-3-23,36,31,28,29,26,21,94,80,59,30.16,30.07,12,5,18,0.00
2013-3-24,28,26,25,27,22,19,94,84,71,30.14,30.07,13,7,20,0.00
2013-3-25,30,26,23,24,22,19,92,83,67,30.41,30.13,11,6,20,0.00
2013-3-26,41,29,16,23,19,14,90,69,46,30.44,30.29,7,2,12,0.00
2013-3-27,51,39,28,33,27,22,80,62,42,30.33,30.20,12,5,17,0.00
2013-3-28,58,46,31,36,32,28,88,61,35,30.28,30.16,8,2,9,0.00
2013-3-29,68,53,36,40,35,31,86,54,26,30.23,30.03,13,4,20,0.00
2013-3-30,65,56,48,53,44,34,96,67,33,30.07,29.88,14,4,22,0.21
2013-3-31,55,46,31,42,33,21,96,65,28,30.16,29.93,14,6,20,0.03
2013-4-1,38,29,21,30,20,14,96,70,37,30.37,30.16,13,4,18,0.00
2013-4-2,52,38,22,27,22,18,88,56,36,30.38,30.27,10,2,14,0.00
2013-4-3,55,42,32,29,25,23,70,52,35,30.38,30.22,13,5,17,0.00
2013-4-4,62,48,34,39,32,26,81,56,37,30.24,30.05,10,4,14,0.00
2013-4-5,68,52,35,41,35,30,81,55,34,30.18,29.70,18,8,25,0.00
2013-4-6,69,59,51,47,42,38,71,54,35,29.76,29.57,12,6,21,0.00
2013-4-7,73,56,45,51,44,39,92,65,33,29.84,29.61,14,4,28,0.18
2013-4-8,68,58,48,60,54,47,97,87,72,29.69,29.59,13,4,15,0.15
2013-4-9,62,45,33,61,44,32,99,96,90,29.98,29.56,18,8,33,1.00
2013-4-10,37,35,32,37,34,32,99,98,95,30.00,29.80,14,5,20,0.45
2013-4-11,35,32,29,33,30,28,98,92,85,29.83,29.68,11,5,16,0.07
2013-4-12,40,35,32,31,29,27,91,81,66,30.05,29.76,9,5,17,0.00
2013-4-13,52,41,28,39,32,25,91,72,58,30.07,29.68,16,5,22,0.00
2013-4-14,67,53,43,52,44,37,88,72,51,29.71,29.31,19,7,26,0.16
2013-4-15,45,40,32,37,30,24,87,67,55,30.12,29.66,11,4,17,0.00
2013-4-16,51,42,35,36,30,28,79,64,43,30.27,30.10,14,6,20,0.00
2013-4-17,46,41,36,42,38,34,97,88,63,30.19,29.69,15,7,23,0.78
2013-4-18,36,33,31,35,31,28,98,93,82,29.94,29.71,15,9,28,0.42
2013-4-19,44,36,28,28,23,21,84,61,40,30.14,29.90,14,6,20,0.00
2013-4-20,47,37,26,29,23,17,88,58,37,30.30,30.14,13,5,20,0.00
2013-4-21,67,54,45,51,39,29,95,59,34,30.18,29.98,18,8,25,0.79
2013-4-22,51,43,32,50,42,29,99,95,88,30.23,29.93,17,5,26,1.30
2013-4-23,38,32,29,29,25,22,89,74,59,30.29,30.19,16,8,26,0.00
2013-4-24,58,41,26,40,28,22,86,64,27,30.26,30.06,14,4,22,0.04
2013-4-25,69,52,32,38,33,29,92,55,27,30.27,30.01,16,5,24,0.00
2013-4-26,71,59,51,51,44,37,87,58,41,30.17,30.01,15,7,21,0.00
2013-4-27,69,56,45,52,48,44,97,78,51,30.19,29.93,9,3,12,0.00
2013-4-28,82,64,47,55,50,45,94,63,33,29.94,29.65,15,5,23,0.00
2013-4-29,85,69,55,57,53,46,82,60,27,29.73,29.45,10,3,18,0.00
2013-4-30,74,69,60,58,50,42,59,51,43,29.85,29.43,16,7,23,0.00
2013-5-1,60,41,32,45,37,31,98,85,49,30.44,29.83,22,10,34,0.42
2013-5-2,48,39,32,34,32,29,99,77,51,30.58,30.42,20,7,34,0.56
2013-5-3,45,39,31,34,30,27,86,70,56,30.42,30.06,14,7,22,0.00
2013-5-4,43,39,34,41,36,32,96,92,81,30.16,30.00,15,8,22,0.02
2013-5-5,54,46,41,49,44,40,97,91,82,30.19,30.11,9,4,13,0.01
2013-5-6,66,54,47,54,49,45,95,83,61,30.16,30.02,6,2,9,0.00
2013-5-7,74,61,46,58,51,44,97,75,45,30.07,29.92,10,2,13,0.12
2013-5-8,68,62,57,59,57,53,95,83,71,29.94,29.86,8,2,13,0.04
2013-5-9,67,59,55,59,56,54,98,92,69,29.98,29.83,11,3,20,1.20
2013-5-10,69,57,48,53,48,45,94,73,44,30.08,29.97,12,4,17,0.08
2013-5-11,58,54,46,47,32,22,84,45,25,30.24,30.01,14,5,23,0.00
2013-5-12,66,52,33,32,27,22,81,42,23,30.29,30.10,8,1,12,0.00
2013-5-13,84,67,49,54,43,29,67,43,24,30.11,29.80,17,5,23,0.00
2013-5-14,101,82,61,61,53,42,82,44,14,29.80,29.56,13,4,20,0.00
2013-5-15,84,75,64,48,42,36,51,32,19,29.85,29.70,15,6,24,0.00
2013-5-16,86,74,61,65,56,45,74,56,37,29.82,29.69,11,3,15,0.00
2013-5-17,85,76,66,63,60,59,82,61,42,29.84,29.75,12,4,16,0.00
2013-5-18,85,76,64,67,63,59,85,66,47,29.83,29.62,14,5,21,0.00
2013-5-19,76,66,61,66,62,55,99,88,67,29.73,29.45,14,3,23,1.01
2013-5-20,76,66,57,61,55,51,95,70,46,29.61,29.46,10,4,20,0.03
2013-5-21,62,59,54,57,50,46,86,74,59,29.70,29.55,10,4,21,0.00
2013-5-22,59,55,51,53,50,48,93,84,72,29.97,29.70,9,3,15,0.01
2013-5-23,72,60,51,52,47,40,94,66,32,30.22,29.97,16,4,22,0.00
2013-5-24,73,64,52,52,48,44,73,57,43,30.27,29.99,16,6,24,0.00
2013-5-25,78,66,57,69,59,47,98,79,53,30.09,29.91,12,6,20,0.37
2013-5-26,79,68,63,70,64,60,93,86,73,29.97,29.79,14,6,19,0.00
2013-5-27,77,67,59,66,62,58,100,87,64,29.86,29.56,15,5,23,1.23
2013-5-28,80,71,61,66,63,56,99,79,46,29.67,29.58,10,2,16,0.06
2013-5-29,75,69,63,69,64,61,95,86,75,29.67,29.48,14,6,21,0.79
2013-5-30,75,66,60,64,61,55,98,85,66,29.60,29.45,12,4,24,0.16
2013-5-31,80,69,56,56,52,46,87,58,34,29.67,29.56,13,3,21,0.00
2013-6-1,64,58,54,55,51,47,89,77,56,30.01,29.61,8,4,17,0.03
2013-6-2,68,58,51,49,46,43,88,67,43,30.11,29.99,7,2,12,0.00
2013-6-3,74,63,50,55,50,47,90,65,41,30.04,29.80,14,6,22,0.00
2013-6-4,73,65,58,64,60,55,94,82,69,29.96,29.83,11,4,17,0.25
2013-6-5,73,64,58,63,53,48,96,70,44,30.02,29.92,8,2,13,0.00
2013-6-6,71,63,54,57,52,48,86,68,48,29.98,29.92,7,1,13,0.00
2013-6-7,74,63,51,54,51,49,93,67,45,30.02,29.86,7,2,12,0.00
2013-6-8,69,62,58,63,57,50,98,84,65,29.87,29.63,11,4,18,1.13
2013-6-9,68,62,59,62,59,57,98,90,77,29.80,29.67,9,2,13,0.38
2013-6-10,78,67,57,65,61,56,99,81,59,29.87,29.73,10,2,14,0.00
2013-6-11,88,78,68,72,67,63,86,71,45,29.80,29.63,9,3,15,0.00
2013-6-12,88,78,62,72,65,54,77,66,49,29.96,29.60,10,4,17,0.00
2013-6-13,78,67,58,64,57,53,91,72,44,30.06,29.92,8,1,12,0.04
2013-6-14,87,72,62,72,64,58,96,77,59,30.00,29.71,15,6,28,1.53
2013-6-15,83,74,66,71,66,63,96,78,52,29.90,29.76,8,3,16,0.00
2013-6-16,86,76,67,70,64,56,97,70,38,29.93,29.87,7,2,12,0.00
2013-6-17,88,77,64,63,59,56,84,57,35,29.96,29.88,5,1,9,0.00
2013-6-18,85,72,64,65,59,55,94,65,38,30.03,29.91,7,1,8,0.16
2013-6-19,86,75,63,68,63,58,88,67,47,29.97,29.83,13,4,20,0.00
2013-6-20,90,80,70,73,70,65,85,70,55,29.90,29.73,16,7,26,0.00
2013-6-21,93,85,78,76,72,71,81,67,50,29.80,29.68,13,6,24,0.00
2013-6-22,91,80,68,73,68,60,91,67,48,29.94,29.70,20,6,32,0.30
2013-6-23,81,74,65,71,67,62,95,79,66,29.89,29.67,14,3,22,0.28
2013-6-24,83,76,62,73,70,61,99,84,68,29.92,29.67,17,4,33,1.02
2013-6-25,87,80,71,76,71,66,90,74,57,29.76,29.59,11,4,24,0.02
2013-6-26,92,82,74,74,68,61,94,65,38,29.82,29.59,5,1,11,0.00
2013-6-27,86,75,68,71,68,65,94,80,56,29.95,29.81,6,1,9,0.31
2013-6-28,85,78,70,67,60,55,82,58,38,29.93,29.83,7,2,16,0.00
2013-6-29,79,72,63,62,57,55,77,61,48,29.91,29.83,14,3,26,0.00
2013-6-30,78,68,59,59,55,51,91,65,41,30.08,29.91,13,2,15,0.00
2013-7-1,82,71,57,58,54,50,85,58,33,30.16,30.06,8,2,15,0.00
2013-7-2,83,70,59,61,57,54,90,66,39,30.13,30.01,6,1,13,0.00
2013-7-3,85,72,58,63,58,53,95,65,35,30.03,29.90,8,1,12,0.00
2013-7-4,86,75,62,63,58,54,79,56,34,29.94,29.83,14,4,18,0.00
2013-7-5,86,78,67,66,62,57,73,60,48,29.86,29.76,10,5,22,0.00
2013-7-6,87,79,72,69,65,62,72,64,51,29.82,29.73,11,6,20,0.00
2013-7-7,93,83,74,71,67,62,72,59,44,29.83,29.74,9,3,18,0.00
2013-7-8,90,83,77,74,71,67,82,68,53,29.88,29.81,6,2,10,0.00
2013-7-9,95,84,75,76,73,70,92,70,48,29.89,29.78,8,2,17,0.10
2013-7-10,82,76,69,71,65,62,91,70,52,30.03,29.89,8,2,15,0.00
2013-7-11,86,76,66,64,62,58,89,63,46,30.05,29.90,11,4,20,0.00
2013-7-12,89,79,70,72,65,60,73,63,56,29.95,29.84,14,7,23,0.00
2013-7-13,89,80,73,75,67,62,74,66,58,29.91,29.84,13,7,21,0.00
2013-7-14,86,78,71,67,62,58,72,59,42,30.09,29.91,12,6,18,0.00
2013-7-15,87,78,67,71,67,62,84,67,52,30.14,30.05,9,2,15,0.00
2013-7-16,90,82,70,70,68,64,90,65,47,30.19,30.10,8,1,13,0.00
2013-7-17,92,84,75,72,70,68,84,65,47,30.23,30.09,9,1,13,0.00
2013-7-18,94,85,75,72,69,66,82,61,42,30.10,29.85,11,3,18,0.00
2013-7-19,94,84,76,74,67,62,77,58,39,29.86,29.80,6,1,12,0.01
2013-7-20,89,79,69,66,62,56,76,58,37,29.94,29.78,8,1,12,0.00
2013-7-21,90,79,72,75,69,63,91,72,51,29.86,29.69,8,2,12,0.06
2013-7-22,94,81,70,76,72,64,94,75,50,29.79,29.66,7,2,12,0.21
2013-7-23,80,73,65,66,63,61,94,73,55,29.96,29.77,10,3,18,0.08
2013-7-24,83,73,60,64,61,57,90,67,51,30.04,29.94,9,1,12,0.00
2013-7-25,82,75,70,68,64,61,90,71,51,29.99,29.91,8,2,20,0.02
2013-7-26,76,70,60,67,60,53,95,72,48,30.07,29.92,8,2,17,0.00
2013-7-27,73,64,54,54,50,46,90,64,42,30.10,29.97,7,1,13,0.00
2013-7-28,78,65,48,52,49,46,96,61,36,30.05,29.98,6,1,9,0.00
2013-7-29,67,63,60,64,57,49,97,81,56,30.03,29.97,9,3,14,0.12
2013-7-30,73,68,64,67,65,63,99,90,77,30.07,29.99,5,1,8,0.01
2013-7-31,85,74,62,68,65,62,99,76,51,30.10,29.98,5,0,7,0.00
2013-8-1,86,74,63,68,65,62,97,76,45,30.04,29.80,13,2,24,0.20
2013-8-2,82,74,67,70,66,60,94,77,62,29.98,29.79,10,3,14,0.00
2013-8-3,77,70,63,61,59,57,84,68,53,30.14,29.98,9,3,13,0.00
2013-8-4,78,71,62,67,60,56,85,70,58,30.14,29.97,11,4,18,0.00
2013-8-5,86,76,69,75,71,66,95,86,65,29.98,29.77,7,2,13,0.03
2013-8-6,89,79,66,74,71,64,98,79,59,29.91,29.73,9,2,17,0.35
2013-8-7,87,85,71,73,72,64,78,66,65,29.94,29.74,3,0,6,0.00
2013-8-8,78,72,66,67,63,61,85,74,58,29.98,29.89,6,1,9,0.00
2013-8-9,78,71,62,70,64,60,98,78,57,30.10,29.96,8,2,12,0.00
2013-8-10,83,72,59,64,61,58,97,72,48,30.16,30.03,8,2,12,0.00
2013-8-11,86,77,67,70,66,60,86,70,53,30.07,29.92,6,2,13,0.00
2013-8-12,83,75,68,70,65,60,93,72,46,30.02,29.93,8,2,13,0.00
2013-8-13,79,70,61,62,58,55,89,67,47,30.13,30.02,7,2,10,0.00
2013-8-14,76,68,61,61,58,55,83,69,53,30.15,30.03,8,3,12,0.02
2013-8-15,66,62,60,60,59,58,97,90,80,30.08,30.00,10,4,16,0.83
2013-8-16,74,67,62,60,58,56,90,75,58,30.15,30.07,10,3,13,0.00
2013-8-17,79,69,60,61,58,56,93,69,48,30.16,30.07,9,2,15,0.00
2013-8-18,80,70,55,63,59,54,98,71,49,30.12,30.00,10,2,17,0.00
2013-8-19,86,76,65,70,66,61,88,72,56,30.03,29.86,11,4,18,0.00
2013-8-20,90,80,70,72,69,66,88,71,55,29.90,29.83,10,4,16,0.00
2013-8-21,93,82,72,73,70,67,85,68,51,29.93,29.86,8,4,16,0.00
2013-8-22,83,77,70,71,68,66,90,75,59,30.03,29.89,9,3,13,0.02
2013-8-23,88,80,71,73,69,67,89,72,52,30.02,29.90,11,4,17,0.00
2013-8-24,91,82,75,74,71,69,82,70,55,29.99,29.91,13,6,23,0.00
2013-8-25,95,84,74,75,72,70,86,68,47,30.05,29.95,12,5,21,0.00
2013-8-26,96,85,74,74,71,70,86,65,46,30.00,29.86,11,4,21,0.00
2013-8-27,97,86,78,72,69,67,73,59,41,29.88,29.80,8,4,16,0.00
2013-8-28,96,83,71,72,66,63,81,59,34,29.92,29.85,7,2,13,0.00
2013-8-29,96,84,73,76,72,67,87,68,43,29.93,29.81,9,3,15,0.00
2013-8-30,96,84,74,79,72,68,87,70,46,29.83,29.75,8,1,12,0.00
2013-8-31,95,82,72,74,72,67,93,74,40,29.82,29.70,4,1,6,0.00
2013-9-1,81,74,66,72,65,59,99,75,49,29.95,29.69,12,2,20,1.05
2013-9-2,78,68,59,62,57,50,96,72,37,30.06,29.95,7,1,10,0.00
2013-9-3,86,71,56,63,60,55,98,71,43,30.07,29.96,6,2,9,0.00
2013-9-4,86,76,70,65,63,60,74,63,46,30.10,29.98,7,2,9,0.00
2013-9-5,82,75,68,68,65,62,94,72,54,30.14,30.03,10,3,14,0.11
2013-9-6,92,80,69,73,67,62,79,66,47,30.04,29.83,12,4,18,0.00
2013-9-7,89,79,72,74,70,66,87,73,52,29.85,29.78,7,3,13,0.00
2013-9-8,92,80,70,76,72,69,96,78,54,29.85,29.71,10,2,14,0.00
2013-9-9,97,86,76,73,64,56,80,50,26,29.77,29.69,10,3,17,0.00
2013-9-10,95,79,71,72,66,60,96,67,40,30.00,29.77,14,2,24,0.69
2013-9-11,82,74,68,74,69,65,100,87,65,30.06,29.98,5,1,9,0.38
2013-9-12,77,71,60,68,57,49,95,65,38,30.18,30.05,10,2,16,0.00
2013-9-13,74,64,54,54,52,49,88,66,44,30.20,30.04,6,1,12,0.00
2013-9-14,76,66,55,56,53,47,82,63,45,30.05,29.83,10,4,20,0.00
2013-9-15,70,65,62,66,58,55,97,80,61,30.22,29.81,11,4,18,0.49
2013-9-16,66,61,55,55,54,52,92,79,66,30.30,30.17,11,5,16,0.00
2013-9-17,72,63,57,68,61,55,99,94,86,30.17,29.85,12,4,18,0.26
2013-9-18,90,78,67,72,68,65,94,74,51,29.86,29.62,10,5,21,0.00
2013-9-19,80,71,58,69,63,50,96,75,58,29.95,29.64,10,2,22,0.24
2013-9-20,70,59,50,53,48,46,91,69,42,30.05,29.94,6,1,13,0.00
2013-9-21,76,61,44,54,49,43,97,68,42,30.02,29.83,8,2,13,0.00
2013-9-22,80,68,56,59,53,50,87,62,36,29.87,29.75,13,5,21,0.00
2013-9-23,76,67,56,56,52,50,81,61,41,29.80,29.68,16,8,29,0.00
2013-9-24,70,65,58,59,57,53,94,76,62,29.87,29.67,10,3,17,0.00
2013-9-25,79,67,54,61,58,53,98,75,50,29.89,29.70,11,3,18,0.00
2013-9-26,85,74,63,62,60,58,88,65,43,29.76,29.68,18,9,29,0.00
2013-9-27,88,77,69,63,61,58,77,59,37,29.78,29.69,16,8,32,0.00
2013-9-28,74,62,50,64,52,44,98,73,44,30.03,29.61,12,3,21,0.50
2013-9-29,75,58,45,48,46,43,94,69,34,30.05,29.85,9,2,16,0.00
2013-9-30,81,67,54,54,51,46,82,59,37,29.87,29.65,12,4,20,0.00
2013-10-1,78,67,55,56,52,46,90,60,34,29.92,29.72,8,2,12,0.00
2013-10-2,85,71,56,67,59,48,89,69,47,29.92,29.76,11,3,16,0.00
2013-10-3,77,68,61,67,62,60,97,83,65,29.82,29.67,14,3,22,1.35
2013-10-4,81,67,52,72,61,41,97,83,55,29.84,29.57,14,6,21,0.63
2013-10-5,52,47,42,40,36,33,84,65,52,29.91,29.80,10,5,20,0.00
2013-10-6,50,45,40,46,43,37,96,91,74,30.01,29.77,8,2,14,0.18
2013-10-7,74,57,39,45,42,38,96,62,30,30.09,29.97,6,2,12,0.00
2013-10-8,77,63,50,48,45,43,77,54,35,29.98,29.85,13,5,23,0.00
2013-10-9,77,65,56,54,50,48,76,60,43,29.97,29.88,12,6,20,0.00
2013-10-10,78,67,57,58,53,49,78,62,45,29.96,29.75,13,6,20,0.00
2013-10-11,78,66,54,60,52,42,81,63,28,29.86,29.57,13,6,26,0.00
2013-10-12,66,55,44,44,38,31,80,56,28,30.27,29.86,9,2,14,0.00
2013-10-13,68,53,38,39,37,34,94,59,31,30.41,30.27,8,2,12,0.00
2013-10-14,59,54,47,58,46,34,99,76,49,30.29,29.69,15,6,26,1.22
2013-10-15,55,48,45,54,41,38,98,79,71,30.06,29.76,15,5,22,0.00
2013-10-16,56,47,41,41,38,31,89,72,39,30.08,29.96,6,2,12,0.00
2013-10-17,60,46,34,44,38,33,96,75,49,30.06,29.89,10,2,16,0.00
2013-10-18,50,42,34,39,33,29,89,70,46,30.14,30.02,6,1,12,0.00
2013-10-19,61,46,34,40,35,30,92,68,37,30.02,29.81,11,2,20,0.00
2013-10-20,64,51,41,45,40,34,91,68,41,30.02,29.71,8,1,15,0.00
2013-10-21,52,42,31,40,35,30,95,76,56,30.11,29.95,5,1,10,0.00
2013-10-22,47,42,39,43,38,33,94,83,75,30.13,29.87,8,1,17,0.00
2013-10-23,46,39,32,40,36,31,96,89,76,30.23,30.07,6,1,11,0.04
2013-10-24,48,38,31,36,29,26,93,72,43,30.43,30.23,10,1,14,0.00
2013-10-25,58,43,28,36,30,25,93,64,41,30.44,30.07,11,3,20,0.00
2013-10-26,50,44,32,36,33,28,89,65,46,30.22,30.02,7,2,15,0.00
2013-10-27,70,48,29,39,34,27,94,61,32,30.16,29.83,11,3,17,0.00
2013-10-28,54,46,40,40,37,34,79,69,55,30.19,29.95,13,6,22,0.00
2013-10-29,53,47,42,53,45,39,99,94,79,30.22,29.95,10,3,18,0.26
2013-10-30,60,49,42,57,48,40,100,97,89,29.96,29.76,8,1,12,0.10
2013-10-31,56,45,37,46,39,36,98,83,56,29.76,29.51,8,2,17,0.00
2013-11-1,59,47,42,43,39,36,87,74,45,29.99,29.60,8,3,36,0.00
2013-11-2,57,45,35,40,36,32,89,70,42,30.20,29.99,7,2,10,0.00
2013-11-3,56,49,40,39,36,32,76,60,45,30.10,29.74,22,10,34,0.00
2013-11-4,55,49,35,44,39,33,92,70,54,30.14,29.78,11,4,18,0.00
2013-11-5,45,40,34,43,37,33,97,90,75,30.15,29.87,12,4,17,0.77
2013-11-6,42,36,31,35,32,30,96,87,73,30.30,30.05,12,2,18,0.01
2013-11-7,47,37,30,32,28,21,96,73,36,30.43,30.29,7,1,13,0.00
2013-11-8,62,49,32,40,33,26,78,56,36,30.31,29.74,20,6,29,0.00
2013-11-9,60,50,41,38,35,31,71,58,41,30.35,29.91,8,3,11,0.00
2013-11-10,53,43,31,37,30,27,89,62,39,30.43,30.15,9,2,15,0.00
2013-11-11,46,32,18,42,25,11,92,75,57,30.82,30.11,20,6,27,0.00
2013-11-12,32,22,10,12,9,7,87,61,36,30.96,30.62,8,2,15,0.00
2013-11-13,53,38,24,30,22,12,65,53,40,30.64,30.02,14,7,21,0.00
2013-11-14,53,42,33,36,30,25,89,65,51,30.02,29.90,7,1,12,0.00
2013-11-15,55,43,30,43,35,28,93,75,51,29.92,29.61,13,4,18,0.00
2013-11-16,64,53,43,53,43,34,92,71,42,29.61,29.29,18,6,27,0.00
2013-11-17,53,47,39,44,37,33,83,69,56,30.06,29.31,8,3,16,0.04
2013-11-18,55,42,30,34,30,26,86,65,39,30.27,30.06,6,1,8,0.00
2013-11-19,61,49,37,35,29,25,67,48,30,30.20,29.88,22,8,31,0.00
2013-11-20,54,48,39,39,34,29,86,60,44,29.93,29.74,15,8,28,0.00
2013-11-21,39,28,21,36,24,18,91,85,74,30.61,29.94,16,8,32,0.00
2013-11-22,28,21,13,18,12,7,87,68,51,30.78,30.61,10,2,15,0.00
2013-11-23,24,16,12,15,7,2,81,67,46,30.96,30.70,16,3,24,0.00
2013-11-24,30,21,11,16,10,5,77,65,52,30.84,30.28,14,6,22,0.00
2013-11-25,44,32,26,30,22,13,79,67,52,30.29,30.15,10,4,18,0.00
2013-11-26,31,26,17,25,16,8,84,66,45,30.48,30.23,13,5,24,0.00
2013-11-27,32,23,10,19,12,7,86,65,47,30.49,30.10,13,4,24,0.00
2013-11-28,33,28,20,23,19,16,83,69,55,30.54,30.12,14,4,21,0.00
2013-11-29,44,32,20,29,23,16,84,70,55,30.54,30.18,12,5,20,0.00
2013-11-30,55,40,28,34,29,24,83,65,42,30.18,30.07,6,1,10,0.00
2013-12-1,46,37,28,30,28,24,84,70,49,30.19,29.89,5,1,7,0.00
2013-12-2,61,45,34,37,33,28,86,66,39,29.88,29.52,8,2,13,0.00
2013-12-3,43,38,34,35,33,31,93,82,70,29.70,29.50,10,3,18,0.00
2013-12-4,34,22,15,33,18,8,96,86,71,30.13,29.66,12,6,20,0.00
2013-12-5,16,11,7,9,1,-5,76,65,55,30.55,30.13,10,5,24,0.00
2013-12-6,10,4,-2,-3,-5,-8,76,66,54,30.83,30.54,10,3,20,0.00
2013-12-7,12,4,-3,6,-4,-8,82,70,57,30.88,30.54,8,2,15,0.00
2013-12-8,19,14,10,13,10,4,90,84,72,30.53,30.10,10,3,17,0.00
2013-12-9,15,6,-2,7,-1,-7,89,73,57,30.44,30.19,8,3,17,0.00
2013-12-10,28,22,14,26,14,6,94,70,55,30.34,30.16,7,3,16,0.00
2013-12-11,28,10,3,25,2,-5,90,70,58,30.75,30.32,12,4,23,0.00
2013-12-12,33,20,7,22,13,1,84,74,61,30.56,30.15,7,2,12,0.00
2013-12-13,33,25,20,25,20,17,89,82,69,30.15,29.94,13,4,20,0.00
2013-12-14,22,18,14,18,14,10,88,83,76,30.29,30.15,10,4,18,0.00
2013-12-15,27,21,15,21,16,12,88,81,69,30.25,30.03,5,2,12,0.00
2013-12-16,46,28,14,34,22,12,88,79,59,30.22,30.04,9,2,16,0.00
2013-12-17,41,33,28,29,22,17,86,67,39,30.32,30.14,9,3,17,0.00
2013-12-18,50,38,30,33,27,20,85,66,49,30.14,29.73,8,2,15,0.00
2013-12-19,34,29,18,29,24,17,92,82,72,29.93,29.76,13,6,22,0.00
2013-12-20,18,15,13,16,12,10,92,88,82,30.05,29.93,12,4,21,0.00
2013-12-21,23,20,17,20,16,13,90,84,76,29.99,29.86,13,3,21,0.00
2013-12-22,21,16,7,18,10,1,91,78,65,30.49,29.94,13,5,21,0.00
2013-12-23,10,4,0,1,-5,-11,80,64,47,30.71,30.49,10,3,17,0.00
2013-12-24,25,12,0,22,7,-7,91,77,65,30.66,30.22,17,5,25,0.00
2013-12-25,41,29,21,30,23,18,91,78,54,30.35,30.28,14,4,26,0.00
2013-12-26,48,34,24,26,22,20,86,65,39,30.30,30.14,6,2,10,0.00
2013-12-27,62,40,22,31,25,19,88,60,26,30.30,30.09,10,2,16,0.00
2013-12-28,59,40,15,31,26,7,83,62,30,30.17,29.74,18,6,30,0.00
2013-12-29,14,8,3,7,-8,-15,75,50,29,30.45,30.17,17,6,26,0.00
2013-12-30,34,17,6,25,4,-9,82,58,45,30.40,30.14,13,5,22,0.00
2013-12-31,32,16,9,20,9,4,86,76,57,30.37,30.09,14,4,21,0.00
2014-1-1,10,7,3,5,2,-3,85,80,75,30.51,30.23,15,6,20,0.00
2014-1-2,8,3,-2,-1,-3,-5,85,76,63,30.59,30.48,8,2,12,0.00